TimePST,TemperatureF,Dew PointF,Humidity,Sea Level PressureIn,VisibilityMPH,Wind Direction,Wind SpeedMPH,Gust SpeedMPH,PrecipitationIn,Events,Conditions,WindDirDegrees,DateUTC
12:52 AM,57.9,44.1,60,30.12,10.0,West,4.6,-,N/A,,Clear,260,2012-12-04 08:52:00
1:52 AM,57.0,45.0,64,30.13,10.0,East,3.5,-,N/A,,Clear,80,2012-12-04 09:52:00
2:52 AM,55.9,44.1,64,30.14,10.0,Calm,Calm,-,N/A,,Clear,0,2012-12-04 10:52:00
3:52 AM,55.9,45.0,67,30.15,10.0,SW,4.6,-,N/A,,Clear,230,2012-12-04 11:52:00
4:52 AM,57.0,45.0,64,30.16,10.0,SW,6.9,-,N/A,,Clear,230,2012-12-04 12:52:00
5:52 AM,55.0,45.0,69,30.19,10.0,North,3.5,-,N/A,,Clear,360,2012-12-04 13:52:00
6:52 AM,53.1,45.0,74,30.20,10.0,Calm,Calm,-,N/A,,Clear,0,2012-12-04 14:52:00
7:52 AM,57.9,46.0,65,30.22,10.0,Calm,Calm,-,N/A,,Clear,0,2012-12-04 15:52:00
8:52 AM,63.0,46.9,56,30.23,10.0,WSW,5.8,-,N/A,,Clear,250,2012-12-04 16:52:00
9:52 AM,66.9,46.9,49,30.23,10.0,Calm,Calm,-,N/A,,Clear,0,2012-12-04 17:52:00
10:52 AM,71.1,46.9,42,30.20,10.0,Calm,Calm,-,N/A,,Clear,0,2012-12-04 18:52:00
11:52 AM,73.9,46.9,38,30.18,10.0,North,3.5,-,N/A,,Clear,360,2012-12-04 19:52:00
12:52 PM,77.0,46.0,33,30.15,10.0,Calm,Calm,-,N/A,,Clear,0,2012-12-04 20:52:00
1:52 PM,79.0,45.0,30,30.12,10.0,North,4.6,-,N/A,,Clear,350,2012-12-04 21:52:00
3:52 PM,75.0,48.0,38,30.11,10.0,ENE,3.5,-,N/A,,Clear,70,2012-12-04 23:52:00
4:52 PM,72.0,46.0,40,30.11,10.0,NE,3.5,-,N/A,,Clear,50,2012-12-05 00:52:00
5:52 PM,70.0,46.0,42,30.12,10.0,West,4.6,-,N/A,,Clear,260,2012-12-05 01:52:00
6:52 PM,69.1,43.0,39,30.13,10.0,NW,3.5,-,N/A,,Clear,320,2012-12-05 02:52:00
7:52 PM,68.0,42.1,39,30.13,10.0,NNW,4.6,-,N/A,,Clear,330,2012-12-05 03:52:00
8:52 PM,64.0,41.0,43,30.12,10.0,NW,6.9,-,N/A,,Clear,320,2012-12-05 04:52:00
9:52 PM,61.0,41.0,48,30.12,10.0,North,4.6,-,N/A,,Clear,350,2012-12-05 05:52:00
10:52 PM,60.1,41.0,49,30.11,10.0,NNW,5.8,-,N/A,,Clear,340,2012-12-05 06:52:00
11:52 PM,59.0,39.9,49,30.11,10.0,WNW,5.8,-,N/A,,Clear,300,2012-12-05 07:52:00